Ardmore, OK

4:45 AM CST on February 25, 2017 (GMT -0600)
Ardmore Downtown

Weather History for K1F0 - October, 2012

Change the Weather History Date:

Sunday, October 7, 2012

  Actual Average (KADM) Record (KADM)
Temperature  
Mean Temperature 44 °F -  
Max Temperature 51 °F 75 °F 95 °F (2014)
Min Temperature 37 °F 55 °F 39 °F (2013)
Degree Days  
Heating Degree Days 21    
Moisture  
Dew Point 31 °F    
Average Humidity 55    
Maximum Humidity 87    
Minimum Humidity 33    
Precipitation  
Precipitation 0.00 in - - ()
Sea Level Pressure  
Sea Level Pressure 30.28 in    
Wind  
Wind Speed 5 mph (NE)    
Max Wind Speed 10 mph    
Max Gust Speed -    
Visibility 10 miles    
Events Rain    
Averages and records for this station are not official NWS values.
T = Trace of Precipitation, MM = Missing Value Source: NWS Daily Summary

Daily Weather History Graph

Daily Weather History Graph

Search for Another Location

Airport or City:

Trip Planner

Search our weather history database for the weather conditions in past years. The results will help you decide how hot, cold, wet, or windy it might be!

Date:

Astronomy

Oct. 07, 2012 Rise Set
Actual Time 7:27 AM CDT 7:03 PM CDT
Civil Twilight 7:02 AM CDT 7:28 PM CDT
Nautical Twilight 6:33 AM CDT 7:57 PM CDT
Astronomical Twilight 6:04 AM CDT 8:26 PM CDT
Moon No Moon Rise 1:55 PM CDT (10/7)
Length of Visible Light 12h 26m
Length of Day
11h 36m
Waning Gibbous, 56% of the Moon is Illuminated
Oct 7
Waning Gibbous
Oct 8
Last Quarter
Oct 15
New
Oct 21
First Quarter
Oct 29
Full

Hourly Weather History & Observations

Time (CDT) Temp. Windchill Dew Point Humidity Pressure Visibility Wind Dir Wind Speed Gust Speed Precip Events Conditions
12:15 AM 46.4 °F 41.9 °F 32.0 °F 57% 30.31 in 10.0 mi NE 9.2 mph - N/A   Overcast
12:35 AM 46.4 °F 42.4 °F 32.0 °F 57% 30.30 in 10.0 mi NE 8.1 mph - N/A   Overcast
12:55 AM 46.4 °F 41.9 °F 32.0 °F 57% 30.30 in 10.0 mi NE 9.2 mph - N/A   Overcast
1:15 AM 46.4 °F 43.5 °F 32.0 °F 57% 30.30 in 10.0 mi NE 5.8 mph - N/A   Mostly Cloudy
1:35 AM 46.4 °F 41.5 °F 32.0 °F 57% 30.31 in 10.0 mi NE 10.4 mph - N/A   Mostly Cloudy
1:55 AM 46.4 °F 42.9 °F 32.0 °F 57% 30.31 in 10.0 mi NE 6.9 mph - N/A   Scattered Clouds
2:15 AM 46.4 °F 42.4 °F 32.0 °F 57% 30.31 in 10.0 mi NE 8.1 mph - N/A   Mostly Cloudy
2:35 AM 44.6 °F 39.7 °F 32.0 °F 61% 30.31 in 10.0 mi NE 9.2 mph - N/A   Mostly Cloudy
2:55 AM 44.6 °F 40.7 °F 32.0 °F 61% 30.31 in 10.0 mi NNE 6.9 mph - N/A   Clear
3:15 AM 44.6 °F - 32.0 °F 61% 30.32 in 10.0 mi Calm Calm - N/A   Scattered Clouds
3:35 AM 44.6 °F 41.4 °F 32.0 °F 61% 30.31 in 10.0 mi NNE 5.8 mph - N/A   Mostly Cloudy
3:55 AM 44.6 °F 42.2 °F 32.0 °F 61% 30.30 in 10.0 mi NE 4.6 mph - N/A   Mostly Cloudy
4:15 AM 44.6 °F 40.2 °F 32.0 °F 61% 30.30 in 10.0 mi NE 8.1 mph - N/A   Scattered Clouds
4:35 AM 44.6 °F 41.4 °F 32.0 °F 61% 30.30 in 10.0 mi NE 5.8 mph - N/A   Clear
4:55 AM 44.6 °F 41.4 °F 32.0 °F 61% 30.30 in 10.0 mi NE 5.8 mph - N/A   Clear
5:15 AM 44.6 °F 40.7 °F 32.0 °F 61% 30.30 in 10.0 mi NE 6.9 mph - N/A   Scattered Clouds
5:35 AM 44.6 °F 41.4 °F 32.0 °F 61% 30.29 in 10.0 mi NE 5.8 mph - N/A   Scattered Clouds
5:55 AM 44.6 °F 39.7 °F 32.0 °F 61% 30.32 in 10.0 mi NNE 9.2 mph - N/A   Clear
6:15 AM 42.8 °F 40.1 °F 32.0 °F 66% 30.32 in 10.0 mi NNE 4.6 mph - N/A   Scattered Clouds
6:35 AM 42.8 °F 38.6 °F 32.0 °F 66% 30.29 in 10.0 mi East 6.9 mph - N/A   Scattered Clouds
6:55 AM 42.8 °F 41.1 °F 32.0 °F 66% 30.30 in 10.0 mi NE 3.5 mph - N/A   Clear
7:15 AM 41.0 °F 39.0 °F 32.0 °F 70% 30.30 in 10.0 mi NE 3.5 mph - N/A   Clear
7:35 AM 41.0 °F - 32.0 °F 70% 30.30 in 10.0 mi Calm Calm - N/A   Clear
7:55 AM 41.0 °F - 32.0 °F 70% 30.32 in 10.0 mi Calm Calm - N/A   Clear
8:15 AM 42.8 °F 41.1 °F 32.0 °F 66% 30.31 in 10.0 mi NE 3.5 mph - N/A   Clear
8:35 AM 42.8 °F 39.3 °F 32.0 °F 66% 30.30 in 10.0 mi ENE 5.8 mph - N/A   Mostly Cloudy
8:55 AM 42.8 °F 40.1 °F 32.0 °F 66% 30.32 in 10.0 mi NE 4.6 mph - N/A Rain Rain
9:35 AM 42.8 °F - 33.8 °F 70% 30.35 in 10.0 mi Calm Calm - N/A Rain Light Rain
9:55 AM 44.6 °F - 33.8 °F 66% 30.35 in 10.0 mi Calm Calm - N/A   Mostly Cloudy
10:15 AM 44.6 °F 43.1 °F 32.0 °F 61% 30.35 in 10.0 mi NE 3.5 mph - N/A   Overcast
10:35 AM 46.4 °F 42.9 °F 32.0 °F 57% 30.34 in 10.0 mi NE 6.9 mph - N/A   Mostly Cloudy
10:55 AM 46.4 °F - 30.2 °F 53% 30.34 in 10.0 mi Calm Calm - N/A   Scattered Clouds
11:15 AM 48.2 °F - 30.2 °F 50% 30.33 in 10.0 mi NE 5.8 mph - N/A   Scattered Clouds
11:35 AM 50.0 °F - 30.2 °F 47% 30.32 in 10.0 mi Calm Calm - N/A   Scattered Clouds
11:55 AM 50.0 °F - 26.6 °F 40% 30.32 in 10.0 mi Calm Calm - N/A   Scattered Clouds
12:15 PM 50.0 °F - 28.4 °F 43% 30.30 in 10.0 mi East 4.6 mph - N/A   Clear
12:35 PM 50.0 °F - 28.4 °F 43% 30.31 in 10.0 mi ENE 5.8 mph - N/A   Clear
12:55 PM 50.0 °F - 26.6 °F 40% 30.30 in 10.0 mi ENE 5.8 mph - N/A   Mostly Cloudy
1:15 PM 51.8 °F - 26.6 °F 38% 30.29 in 10.0 mi ENE 4.6 mph - N/A   Overcast
1:35 PM 51.8 °F - 26.6 °F 38% 30.27 in 10.0 mi North 3.5 mph - N/A   Overcast
1:55 PM 51.8 °F - 26.6 °F 38% 30.27 in 10.0 mi NE 4.6 mph - N/A   Overcast
2:35 PM 51.8 °F - 26.6 °F 38% 30.25 in 10.0 mi NE 3.5 mph - N/A   Overcast
2:55 PM 51.8 °F - 26.6 °F 38% 30.24 in 10.0 mi ENE 3.5 mph - N/A   Overcast
3:15 PM 51.8 °F - 24.8 °F 35% 30.24 in 10.0 mi NNE 3.5 mph - N/A   Overcast
3:35 PM 51.8 °F - 24.8 °F 35% 30.23 in 10.0 mi ENE 3.5 mph - N/A   Overcast
3:55 PM 51.8 °F - 23.0 °F 33% 30.23 in 10.0 mi Calm Calm - N/A   Overcast
4:15 PM 51.8 °F - 23.0 °F 33% 30.23 in 10.0 mi Calm Calm - N/A   Overcast
4:35 PM 51.8 °F - 23.0 °F 33% 30.22 in 10.0 mi Calm Calm - N/A   Overcast
4:55 PM 51.8 °F - 24.8 °F 35% 30.22 in 10.0 mi Calm Calm - N/A   Overcast
5:15 PM 51.8 °F - 26.6 °F 38% 30.22 in 10.0 mi Calm Calm - N/A   Overcast
5:35 PM 51.8 °F - 26.6 °F 38% 30.22 in 10.0 mi Calm Calm - N/A   Overcast
5:55 PM 51.8 °F - 28.4 °F 41% 30.22 in 10.0 mi Calm Calm - N/A   Overcast
6:15 PM 51.8 °F - 30.2 °F 44% 30.22 in 10.0 mi Calm Calm - N/A   Overcast
6:35 PM 51.8 °F - 32.0 °F 47% 30.22 in 10.0 mi Calm Calm - N/A   Overcast
6:55 PM 51.8 °F - 32.0 °F 47% 30.22 in 10.0 mi Calm Calm - N/A   Overcast
7:15 PM 51.8 °F - 30.2 °F 44% 30.22 in 10.0 mi Calm Calm - N/A   Overcast
7:35 PM 50.0 °F - 30.2 °F 47% 30.22 in 10.0 mi Calm Calm - N/A   Overcast
7:55 PM 50.0 °F - 32.0 °F 50% 30.22 in 10.0 mi Calm Calm - N/A   Overcast
8:15 PM 50.0 °F - 32.0 °F 50% 30.24 in 10.0 mi Calm Calm - N/A   Overcast
8:35 PM 50.0 °F - 32.0 °F 50% 30.23 in 10.0 mi Calm Calm - N/A   Overcast
8:55 PM 48.2 °F - 33.8 °F 58% 30.23 in 10.0 mi Calm Calm - N/A   Mostly Cloudy
9:15 PM 48.2 °F - 33.8 °F 58% 30.24 in 10.0 mi Calm Calm - N/A   Overcast
9:35 PM 46.4 °F - 35.6 °F 66% 30.24 in 10.0 mi Calm Calm - N/A   Mostly Cloudy
9:55 PM 46.4 °F - 33.8 °F 62% 30.25 in 10.0 mi Calm Calm - N/A   Mostly Cloudy
10:15 PM 44.6 °F - 33.8 °F 66% 30.25 in 10.0 mi Calm Calm - N/A   Scattered Clouds
10:35 PM 42.8 °F - 35.6 °F 76% 30.25 in 10.0 mi Calm Calm - N/A   Clear
10:55 PM 41.0 °F - 33.8 °F 76% 30.25 in 10.0 mi Calm Calm - N/A   Clear
11:15 PM 37.4 °F - 33.8 °F 87% 30.25 in 10.0 mi Calm Calm - N/A   Clear
11:35 PM 37.4 °F - 33.8 °F 87% 30.24 in 10.0 mi Calm Calm - N/A   Clear
11:55 PM 37.4 °F - 33.8 °F 87% 30.24 in 10.0 mi Calm Calm - N/A   Clear